This demonstration page uses our WeatherBlox Daily Observations layout. Learn more.

Left ArrowRight Arrow

39.29038, -76.61219

Hourly Observations for April 9, 2022

Temp ( °F °C ) Dew Point ( °F °C ) Humidity (%) Winds ( mph kmh ) Pressure ( in mb ) Visibility ( mi km ) Precip ( " mm )
12:54 am 00:54 Cloudy with Light Rain 47 8.3 44 6.7 90 90 SSE 7 11 29.68 1005 10 16 0.10 2.54
1:54 am 01:54 Mostly Cloudy 45 7.2 43 6.1 93 93 WSW 3 6 29.66 1005 10 16 0.00 0.00
2:54 am 02:54 Partly Cloudy 46 7.8 43 6.1 89 89 WSW 3 6 29.65 1004 10 16 0.00 0.00
3:54 am 03:54 Mostly Cloudy 45 7.2 41 5 86 86 WSW 5 7 29.65 1004 10 16 0.00 0.00
4:54 am 04:54 Cloudy with Rain 44 6.7 41 5 89 89 WSW 9 15 29.67 1005 4 6 0.02 0.51
5:54 am 05:54 Mostly Cloudy 43 6.1 41 5 93 93 WSW 5 7 29.67 1005 10 16 0.03 0.76
6:54 am 06:54 Mostly Cloudy 43 6.1 41 5 93 93 WSW 5 7 29.67 1005 10 16 0.00 0.00
7:54 am 07:54 Partly Cloudy 46 7.8 40 4.4 79 79 W 8 13 29.69 1005 10 16 0.00 0.00
8:54 am 08:54 Partly Cloudy 49 9.4 39 3.9 69 69 W 14 22 29.70 1006 10 16 0.00 0.00
9:54 am 09:54 Mostly Cloudy 52 11.1 39 3.9 61 61 WNW 13 20 29.70 1006 10 16 0.00 0.00
10:54 am 10:54 Mostly Cloudy 54 12.2 37 2.8 53 53 WNW 15 24 29.69 1006 10 16 0.00 0.00
11:54 am 11:54 Mostly Cloudy 54 12.2 36 2.2 51 51 W 14 22 29.69 1006 10 16 0.00 0.00
12:54 pm 12:54 Mostly Cloudy 55 12.8 34 1.1 45 45 WNW 15 24 29.68 1005 10 16 0.00 0.00
1:54 pm 13:54 Partly Cloudy with Light Rain 55 12.8 36 2.2 49 49 NW 9 15 29.68 1005 10 16 0.00 0.00
2:46 pm 14:46 Partly Cloudy 57 13.9 34 1.1 42 42 VRB 7 11 29.66 1004 10 16 0.00 0.00
2:54 pm 14:54 Partly Cloudy 57 13.9 35 1.7 44 44 WNW 15 24 29.66 1005 10 16 0.00 0.00
3:54 pm 15:54 Mostly Cloudy 57 13.9 34 1.1 42 42 W 10 17 29.66 1005 10 16 0.00 0.00
4:54 pm 16:54 Mostly Cloudy 55 12.8 32 0 42 42 W 13 20 29.67 1005 10 16 0.00 0.00
5:54 pm 17:54 Mostly Cloudy 54 12.2 32 0 43 43 W 10 17 29.67 1005 10 16 0.00 0.00
6:54 pm 18:54 Mostly Cloudy 53 11.7 30 -1.1 41 41 W 10 17 29.68 1005 10 16 0.00 0.00
7:54 pm 19:54 Mostly Cloudy 52 11.1 30 -1.1 43 43 WNW 9 15 29.70 1006 10 16 0.00 0.00
8:54 pm 20:54 Mostly Cloudy 50 10 29 -1.7 44 44 W 9 15 29.73 1007 10 16 0.00 0.00
9:54 pm 21:54 Mostly Cloudy 48 8.9 32 0 54 54 WNW 9 15 29.75 1008 10 16 0.00 0.00
10:54 pm 22:54 Mostly Cloudy 46 7.8 33 0.6 61 61 W 9 15 29.76 1008 10 16 0.00 0.00
11:54 pm 23:54 Mostly Cloudy 46 7.8 34 1.1 63 63 W 9 15 29.77 1008 10 16 0.00 0.00

Powered by AerisWeather